Location: Pescara
(42.4765°N, 14.1734°E)
Time: 21:41:19
(UTC+01:00)

ISS - Visible Passes

Search period start: 09 December 2019 00:00
Search period end: 19 December 2019 00:00
Orbit: 411 x 421 km, 51.6° (Epoch: 10 December)

Date Brightness Start Highest point End Pass type
(mag) Time Alt. Az. Time Alt. Az. Time Alt. Az.
09 Dec -3.9 17:39:17 10° NW 17:42:39 77° NNE 17:45:23 15° ESE visible
09 Dec -0.5 19:17:13 10° W 19:18:22 13° WSW 19:18:22 13° WSW visible
10 Dec -1.4 18:27:58 10° W 18:30:42 23° SW 18:33:06 12° S visible
11 Dec -2.3 17:39:11 10° WNW 17:42:20 39° SW 17:45:30 10° SSE visible
13 Dec -0.5 17:39:49 10° W 17:41:47 15° SW 17:43:45 10° SSW visible
